Clayton Lake, ME

1:47 AM EDT on October 22, 2017 (GMT -0400)
Clayton Lake

Weather History for K40B - May, 2014

Change the Weather History Date:

Friday, May 30, 2014

  Actual Average Record
Temperature  
Mean Temperature 53 °F -  
Max Temperature 68 °F 61 °F 84 °F (2015)
Min Temperature 39 °F 38 °F 30 °F (2000)
Degree Days  
Heating Degree Days 12    
Growing Degree Days 3 (Base 50)    
Moisture  
Dew Point 46 °F    
Average Humidity 83    
Maximum Humidity 97    
Minimum Humidity 39    
Precipitation  
Precipitation 0.30 in - - ()
Sea Level Pressure  
Sea Level Pressure 30.05 in    
Wind  
Wind Speed 1 mph (North)    
Max Wind Speed 5 mph    
Max Gust Speed 14 mph    
Averages and records for this station are not official NWS values.
T = Trace of Precipitation, MM = Missing Value Source: NWS Daily Summary

Daily Weather History Graph

Daily Weather History Graph

Search for Another Location

Airport or City:

Trip Planner

Search our weather history database for the weather conditions in past years. The results will help you decide how hot, cold, wet, or windy it might be!

Date:

Astronomy

May. 30, 2014 Rise Set
Actual Time 4:49 AM EDT 8:22 PM EDT
Civil Twilight 4:12 AM EDT 8:59 PM EDT
Nautical Twilight 3:21 AM EDT 9:50 PM EDT
Astronomical Twilight 2:15 AM EDT 10:57 PM EDT
Moon 6:34 AM EDT (5/30) 9:51 PM EDT (5/30)
Length of Visible Light 16h 47m
Length of Day
15h 32m
Waxing Crescent, 4% of the Moon is Illuminated
May 30
Waxing Crescent
Jun 5
First Quarter
Jun 13
Full
Jun 19
Last Quarter
Jun 27
New

Hourly Weather History & Observations

Time (EDT) Temp. Dew Point Humidity Pressure Visibility Wind Dir Wind Speed Gust Speed Precip Events Conditions
12:16 AM 43.5 °F 39.2 °F 85% 30.04 in - Calm Calm - 0.00 in   Unknown
1:16 AM 43.7 °F 39.7 °F 86% 30.04 in - Calm Calm - N/A   Unknown
2:16 AM 43.3 °F 40.5 °F 90% 30.03 in - Calm Calm - 0.00 in   Unknown
3:16 AM 42.3 °F 39.9 °F 91% 30.03 in - Calm Calm - N/A   Unknown
4:16 AM 41.2 °F 39.6 °F 94% 30.03 in - Calm Calm - N/A   Unknown
5:16 AM 39.9 °F 38.5 °F 95% 30.03 in - Calm Calm - N/A   Unknown
6:16 AM 40.6 °F 39.2 °F 95% 30.04 in - Calm Calm - N/A   Unknown
7:16 AM 48.2 °F 42.1 °F 79% 30.05 in - Calm Calm - 0.01 in   Unknown
8:16 AM 58.5 °F 43.7 °F 58% 30.06 in - Calm Calm - N/A   Unknown
9:16 AM 64.6 °F 46.0 °F 51% 30.04 in - Variable 4.6 mph - N/A   Unknown
10:16 AM 64.8 °F 42.8 °F 45% 30.03 in - Variable 4.6 mph - N/A   Unknown
11:16 AM 67.6 °F 41.9 °F 39% 30.00 in - Variable 4.6 mph - N/A   Unknown
12:16 PM 58.3 °F 45.9 °F 63% 30.01 in - Variable 4.6 mph 13.8 mph N/A   Unknown
1:16 PM 58.5 °F 52.3 °F 80% 30.02 in - Variable 3.5 mph - 0.01 in   Unknown
2:16 PM 55.2 °F 53.2 °F 93% 30.03 in - Calm Calm - N/A   Unknown
3:16 PM 52.9 °F 52.0 °F 97% 30.04 in - Calm Calm - 0.19 in   Unknown
4:16 PM 54.1 °F 53.2 °F 97% 30.03 in - Calm Calm - 0.08 in   Unknown
5:16 PM 55.8 °F 53.8 °F 93% 30.04 in - Variable 3.5 mph - 0.01 in   Unknown
6:16 PM 55.0 °F 50.7 °F 85% 30.06 in - Variable 4.6 mph - N/A   Unknown
7:16 PM 54.3 °F 52.2 °F 92% 30.06 in - Calm Calm - N/A   Unknown
8:16 PM 52.7 °F 50.7 °F 93% 30.07 in - Calm Calm - N/A   Unknown
9:16 PM 50.5 °F 49.5 °F 96% 30.09 in - Calm Calm - N/A   Unknown
10:16 PM 51.4 °F 50.0 °F 95% 30.10 in - Calm Calm - N/A   Unknown
11:16 PM 51.3 °F 49.8 °F 95% 30.12 in - Calm Calm - 0.00 in   Unknown